START_TIME,STEP,MOV.,M29,t_acc.,H22,t_acc.,H26,t_acc.,H30,t_acc.
1979-07-23 09:00:31.460 ,0,0,0.,24.0,0.,24.0,0.,24.0,0.,24.0
1979-07-23 09:00:55.460 ,0,1,0.,24.0,0.,24.0,0.,24.0,0.,24.0
1979-07-23 09:01:19.460 ,0,0,0.,24.0,0.,24.0,0.,24.0,0.,24.0
1979-07-23 09:01:43.460 ,1,1,0.,24.0,0.,24.0,0.,24.0,0.,24.0
1979-07-23 09:02:07.460 ,1,0,0.,24.0,0.,24.0,0.,24.0,0.,24.0
1979-07-23 09:02:31.460 ,2,1,0.,24.0,0.,24.0,0.,24.0,0.,24.0
1979-07-23 09:02:55.460 ,2,0,0.,24.0,0.,24.0,0.,24.0,0.,24.0
1979-07-23 09:03:19.460 ,3,1,0.,24.0,0.,24.0,0.,24.0,0.,24.0
1979-07-23 09:03:43.460 ,3,0,0.,24.0,0.,24.0,0.,24.0,0.,24.0
1979-07-23 09:04:07.460 ,4,1,0.,24.0,0.,24.0,0.,24.0,0.,24.0
1979-07-23 09:04:31.460 ,4,0,0.,24.0,0.,24.0,0.,24.0,0.,24.0
1979-07-23 09:04:55.460 ,5,1,0.,24.0,0.,24.0,0.,24.0,0.,24.0
1979-07-23 09:05:19.460 ,5,0,0.,24.0,0.,24.0,0.,24.0,0.,24.0
1979-07-23 09:05:43.460 ,6,1,0.,24.0,0.,24.0,0.,24.0,0.,24.0
1979-07-23 09:06:07.460 ,6,0,0.,24.0,0.,24.0,0.,24.0,0.,24.0
1979-07-23 09:06:31.460 ,7,0,0.,24.0,0.,24.0,0.,24.0,0.,24.0
1979-07-23 09:06:55.460 ,7,0,0.,24.0,0.,24.0,0.,24.0,0.,24.0
1979-07-23 09:07:19.460 ,5,1,0.,24.0,0.,24.0,0.,24.0,0.,24.0
1979-07-23 09:07:43.460 ,1,1,1.,24.0,0.,24.0,0.,24.0,0.,24.0
1979-07-23 09:08:07.460 ,2,1,0.,24.0,0.,24.0,0.,24.0,0.,24.0
1979-07-23 09:08:31.460 ,6,1,0.,24.0,0.,24.0,0.,24.0,0.,24.0
1979-07-23 09:08:55.460 ,5,1,0.,24.0,0.,24.0,0.,24.0,0.,24.0
1979-07-23 09:09:19.460 ,1,1,0.,24.0,0.,24.0,0.,24.0,0.,24.0
1979-07-23 09:09:43.460 ,2,1,0.,24.0,0.,24.0,0.,24.0,0.,24.0
1979-07-23 09:10:07.460 ,6,1,0.,24.0,0.,24.0,0.,24.0,0.,24.0
1979-07-23 09:10:31.460 ,5,1,0.,24.0,0.,24.0,0.,24.0,0.,24.0
1979-07-23 09:10:55.460 ,1,1,0.,24.0,0.,24.0,0.,24.0,0.,24.0
1979-07-23 09:11:19.460 ,2,1,0.,24.0,0.,24.0,0.,24.0,0.,24.0
1979-07-23 09:11:43.460 ,6,1,0.,24.0,0.,24.0,0.,24.0,0.,24.0
1979-07-23 09:12:07.460 ,5,1,0.,24.0,0.,24.0,0.,24.0,0.,24.0
1979-07-23 09:12:31.460 ,1,1,0.,24.0,0.,24.0,0.,24.0,0.,24.0
1979-07-23 09:12:55.460 ,2,1,0.,24.0,0.,24.0,0.,24.0,0.,24.0
1979-07-23 09:13:19.460 ,6,1,0.,24.0,0.,24.0,0.,24.0,0.,24.0
1979-07-23 09:13:43.460 ,5,1,0.,24.0,0.,24.0,0.,24.0,0.,24.0
1979-07-23 09:14:07.460 ,1,1,0.,24.0,0.,24.0,0.,24.0,0.,24.0
1979-07-23 09:14:31.460 ,2,1,0.,24.0,0.,24.0,0.,24.0,0.,24.0
1979-07-23 09:14:55.460 ,6,1,0.,24.0,0.,24.0,0.,24.0,0.,24.0
1979-07-23 09:15:19.460 ,5,1,0.,24.0,0.,24.0,0.,24.0,0.,24.0
1979-07-23 09:15:43.460 ,0,0,0.,24.0,0.,24.0,0.,24.0,0.,24.0
1979-07-23 09:16:07.460 ,0,0,0.,24.0,0.,24.0,0.,24.0,0.,24.0
1979-07-23 09:16:31.460 ,6,1,0.,24.0,0.,24.0,0.,24.0,0.,24.0
1979-07-23 09:16:55.460 ,5,1,0.,24.0,0.,24.0,0.,24.0,0.,24.0
1979-07-23 09:17:19.460 ,1,1,0.,24.0,0.,24.0,0.,24.0,0.,24.0
1979-07-23 09:17:43.460 ,0,0,0.,24.0,0.,24.0,0.,24.0,0.,24.0
1979-07-23 09:18:07.460 ,0,0,0.,24.0,0.,24.0,0.,24.0,0.,24.0
1979-07-23 09:18:31.460 ,5,1,0.,24.0,0.,24.0,0.,24.0,0.,24.0
1979-07-23 09:18:55.460 ,5,0,0.,24.0,0.,24.0,0.,24.0,0.,24.0
1979-07-23 09:19:19.460 ,4,1,0.,24.0,0.,24.0,0.,24.0,0.,24.0
1979-07-23 09:19:43.460 ,4,0,0.,24.0,0.,24.0,0.,24.0,0.,24.0
1979-07-23 09:20:07.460 ,3,1,0.,24.0,0.,24.0,0.,24.0,0.,24.0
1979-07-23 09:20:31.460 ,3,0,0.,24.0,0.,24.0,0.,24.0,0.,24.0
1979-07-23 09:20:55.460 ,2,1,0.,24.0,0.,24.0,0.,24.0,0.,24.0
1979-07-23 09:21:19.460 ,2,0,0.,24.0,0.,24.0,0.,24.0,0.,24.0
1979-07-23 09:21:43.460 ,1,1,0.,24.0,0.,24.0,0.,24.0,0.,24.0
1979-07-23 09:22:07.460 ,1,0,0.,24.0,0.,24.0,0.,24.0,0.,24.0
1979-07-23 09:22:31.460 ,0,1,0.,24.0,0.,24.0,0.,24.0,0.,24.0
1979-07-23 09:22:55.460 ,0,0,0.,24.0,0.,24.0,0.,24.0,0.,24.0
1979-07-23 09:23:19.460 ,0,1,0.,24.0,0.,24.0,0.,24.0,0.,24.0
1979-07-23 09:23:43.460 ,0,0,0.,24.0,0.,24.0,0.,24.0,0.,24.0
1979-07-23 09:24:07.460 ,1,1,0.,24.0,0.,24.0,0.,24.0,0.,24.0
1979-07-23 09:24:31.460 ,1,0,0.,24.0,0.,24.0,0.,24.0,0.,24.0
1979-07-23 09:24:55.460 ,2,1,0.,24.0,0.,24.0,0.,24.0,0.,24.0
1979-07-23 09:25:19.460 ,2,0,0.,24.0,0.,24.0,0.,24.0,0.,24.0
1979-07-23 09:25:43.460 ,3,1,0.,24.0,0.,24.0,0.,24.0,0.,24.0
1979-07-23 09:26:07.460 ,3,0,0.,24.0,0.,24.0,0.,24.0,0.,24.0
1979-07-23 09:26:31.460 ,4,1,0.,24.0,0.,24.0,0.,24.0,0.,24.0
1979-07-23 09:26:55.460 ,4,0,0.,24.0,0.,24.0,0.,24.0,0.,24.0
1979-07-23 09:27:19.460 ,5,1,0.,24.0,0.,24.0,0.,24.0,0.,24.0
1979-07-23 09:27:43.460 ,5,0,0.,24.0,0.,24.0,0.,24.0,0.,24.0
1979-07-23 09:28:07.460 ,6,1,0.,24.0,0.,24.0,0.,24.0,0.,24.0
1979-07-23 09:28:31.460 ,6,0,0.,24.0,0.,24.0,0.,24.0,0.,24.0
1979-07-23 09:28:55.460 ,7,1,0.,24.0,0.,24.0,0.,24.0,0.,24.0
1979-07-23 09:29:19.460 ,7,0,0.,24.0,0.,24.0,0.,24.0,0.,24.0
1979-07-23 09:29:43.460 ,7,1,0.,24.0,0.,24.0,0.,24.0,0.,24.0
1979-07-23 09:30:07.460 ,7,0,0.,24.0,0.,24.0,0.,24.0,0.,24.0
1979-07-23 09:30:31.460 ,6,1,0.,24.0,0.,24.0,0.,24.0,0.,24.0
1979-07-23 09:30:55.460 ,6,0,0.,24.0,0.,24.0,0.,24.0,0.,24.0
1979-07-23 09:32:07.460 ,0,0,0.,24.0,0.,24.0,0.,24.0,0.,24.0
1979-07-23 09:32:31.460 ,0,0,0.,24.0,0.,24.0,0.,24.0,0.,24.0
1979-07-23 09:32:55.460 ,3,1,0.,24.0,0.,24.0,0.,24.0,0.,24.0
1979-07-23 09:33:19.460 ,3,0,0.,24.0,0.,24.0,0.,24.0,0.,24.0
1979-07-23 09:33:43.460 ,2,1,0.,24.0,0.,24.0,0.,24.0,0.,24.0
1979-07-23 09:34:07.460 ,2,0,0.,24.0,0.,24.0,0.,24.0,0.,24.0
1979-07-23 09:34:31.460 ,1,1,0.,24.0,0.,24.0,0.,24.0,0.,24.0
1979-07-23 09:34:55.460 ,1,0,0.,24.0,0.,24.0,0.,24.0,0.,24.0
1979-07-23 09:35:19.460 ,0,1,0.,24.0,0.,24.0,0.,24.0,0.,24.0
1979-07-23 09:35:43.460 ,0,0,0.,24.0,0.,24.0,0.,24.0,0.,24.0
1979-07-23 09:36:07.460 ,0,1,0.,24.0,0.,24.0,0.,24.0,0.,24.0
1979-07-23 09:36:31.460 ,0,0,0.,24.0,0.,24.0,0.,24.0,0.,24.0
1979-07-23 09:36:55.460 ,1,1,0.,24.0,0.,24.0,0.,24.0,0.,24.0
1979-07-23 09:37:19.460 ,1,0,0.,24.0,0.,24.0,0.,24.0,0.,24.0
1979-07-23 09:37:43.460 ,2,1,0.,24.0,0.,24.0,0.,24.0,0.,24.0
1979-07-23 09:38:07.460 ,2,0,0.,24.0,0.,24.0,0.,24.0,0.,24.0
1979-07-23 09:38:31.460 ,3,1,0.,24.0,0.,24.0,0.,24.0,0.,24.0
1979-07-23 09:38:55.460 ,3,0,0.,24.0,0.,24.0,0.,24.0,0.,24.0
1979-07-23 09:39:19.460 ,4,1,0.,24.0,0.,24.0,0.,24.0,0.,24.0
1979-07-23 09:39:43.460 ,4,0,0.,24.0,0.,24.0,0.,24.0,0.,24.0
1979-07-23 09:40:07.460 ,5,1,0.,24.0,0.,24.0,0.,24.0,0.,24.0
1979-07-23 09:40:31.460 ,5,0,0.,24.0,0.,24.0,0.,24.0,0.,24.0
1979-07-23 09:40:55.460 ,6,1,0.,24.0,0.,24.0,0.,24.0,0.,24.0
1979-07-23 09:41:19.460 ,6,0,0.,24.0,0.,24.0,0.,24.0,0.,24.0
1979-07-23 09:41:43.460 ,7,1,0.,24.0,0.,24.0,0.,24.0,0.,24.0
1979-07-23 09:42:07.460 ,7,0,0.,24.0,0.,24.0,0.,24.0,0.,24.0
1979-07-23 09:42:31.460 ,7,1,0.,24.0,0.,24.0,0.,24.0,0.,24.0
1979-07-23 09:42:55.460 ,7,0,0.,24.0,0.,24.0,0.,24.0,0.,24.0
1979-07-23 09:43:19.460 ,6,1,0.,24.0,0.,24.0,0.,24.0,0.,24.0
1979-07-23 09:43:43.460 ,6,0,0.,24.0,0.,24.0,0.,24.0,0.,24.0
1979-07-23 09:44:07.460 ,5,1,0.,24.0,0.,24.0,0.,24.0,0.,24.0
1979-07-23 09:44:31.460 ,5,0,0.,24.0,0.,24.0,0.,24.0,0.,24.0
1979-07-23 09:44:55.460 ,4,1,0.,24.0,0.,24.0,0.,24.0,0.,24.0
1979-07-23 09:45:19.460 ,4,0,0.,24.0,0.,24.0,0.,24.0,0.,24.0
1979-07-23 09:45:43.460 ,3,1,0.,24.0,0.,24.0,0.,24.0,0.,24.0
1979-07-23 09:46:07.460 ,3,0,0.,24.0,0.,24.0,0.,24.0,0.,24.0
1979-07-23 09:46:31.460 ,2,1,0.,24.0,0.,24.0,0.,24.0,0.,24.0
1979-07-23 09:46:55.460 ,2,0,0.,24.0,0.,24.0,0.,24.0,0.,24.0
1979-07-23 09:47:19.460 ,1,1,0.,24.0,0.,24.0,0.,24.0,0.,24.0
1979-07-23 09:47:43.460 ,1,0,0.,24.0,0.,24.0,0.,24.0,0.,24.0
1979-07-23 09:48:07.460 ,0,1,0.,24.0,0.,24.0,0.,24.0,0.,24.0
1979-07-23 09:48:31.460 ,0,0,0.,24.0,0.,24.0,0.,24.0,0.,24.0
1979-07-23 09:48:55.460 ,0,1,0.,24.0,0.,24.0,0.,24.0,0.,24.0
1979-07-23 09:49:19.460 ,0,0,0.,24.0,0.,24.0,0.,24.0,0.,24.0
1979-07-23 09:49:43.460 ,1,1,0.,24.0,0.,24.0,0.,24.0,0.,24.0
1979-07-23 09:50:07.460 ,1,0,0.,24.0,0.,24.0,0.,24.0,0.,24.0
1979-07-23 09:50:31.460 ,2,1,0.,24.0,0.,24.0,0.,24.0,0.,24.0
1979-07-23 09:50:55.460 ,2,0,0.,24.0,0.,24.0,0.,24.0,0.,24.0
1979-07-23 09:51:19.460 ,3,1,0.,24.0,0.,24.0,0.,24.0,0.,24.0
1979-07-23 09:51:43.460 ,3,0,0.,24.0,0.,24.0,0.,24.0,0.,24.0
1979-07-23 09:52:07.460 ,4,1,0.,24.0,0.,24.0,0.,24.0,0.,24.0
1979-07-23 09:52:31.460 ,4,0,0.,24.0,0.,24.0,0.,24.0,0.,24.0
1979-07-23 09:52:55.460 ,5,1,0.,24.0,0.,24.0,0.,24.0,0.,24.0
1979-07-23 09:53:19.460 ,5,0,0.,24.0,0.,24.0,0.,24.0,0.,24.0
1979-07-23 09:53:43.460 ,6,1,0.,24.0,0.,24.0,0.,24.0,0.,24.0
1979-07-23 09:54:07.460 ,6,0,0.,24.0,0.,24.0,0.,24.0,0.,24.0
1979-07-23 09:54:31.460 ,7,0,0.,24.0,0.,24.0,0.,24.0,0.,24.0
1979-07-23 09:54:55.460 ,7,0,0.,24.0,0.,24.0,0.,24.0,0.,24.0
1979-07-23 09:55:19.460 ,5,1,0.,24.0,0.,24.0,0.,24.0,0.,24.0
1979-07-23 09:55:43.460 ,1,1,0.,24.0,0.,24.0,0.,24.0,0.,24.0
1979-07-23 09:56:07.460 ,2,1,0.,24.0,0.,24.0,0.,24.0,0.,24.0
1979-07-23 09:56:31.460 ,6,1,0.,24.0,0.,24.0,0.,24.0,0.,24.0
1979-07-23 09:56:55.460 ,5,1,0.,24.0,0.,24.0,0.,24.0,0.,24.0
1979-07-23 09:57:19.460 ,1,1,0.,24.0,0.,24.0,0.,24.0,0.,24.0
1979-07-23 09:57:43.460 ,2,1,0.,24.0,0.,24.0,0.,24.0,0.,24.0
1979-07-23 09:58:07.460 ,6,1,0.,24.0,0.,24.0,0.,24.0,0.,24.0
1979-07-23 09:58:31.460 ,5,1,0.,24.0,0.,24.0,0.,24.0,0.,24.0
1979-07-23 09:58:55.460 ,1,1,0.,24.0,0.,24.0,0.,24.0,0.,24.0
1979-07-23 09:59:19.460 ,2,1,0.,24.0,0.,24.0,0.,24.0,0.,24.0
1979-07-23 09:59:43.460 ,6,1,0.,24.0,0.,24.0,0.,24.0,0.,24.0
1979-07-23 10:00:07.460 ,5,1,0.,24.0,0.,24.0,0.,24.0,0.,24.0
1979-07-23 10:00:31.460 ,1,1,0.,24.0,0.,24.0,0.,24.0,0.,24.0
1979-07-23 10:00:55.460 ,2,1,0.,24.0,0.,24.0,0.,24.0,0.,24.0
1979-07-23 10:01:19.460 ,6,1,0.,24.0,0.,24.0,0.,24.0,0.,24.0
1979-07-23 10:01:43.460 ,5,1,0.,24.0,0.,24.0,0.,24.0,0.,24.0
1979-07-23 10:02:07.460 ,1,1,0.,24.0,0.,24.0,0.,24.0,0.,24.0
1979-07-23 10:02:31.460 ,2,1,0.,24.0,0.,24.0,0.,24.0,0.,24.0
1979-07-23 10:02:55.460 ,6,1,0.,24.0,0.,24.0,0.,24.0,0.,24.0
1979-07-23 10:03:19.460 ,5,1,0.,24.0,0.,24.0,0.,24.0,0.,24.0
1979-07-23 10:03:43.460 ,1,1,0.,24.0,0.,24.0,0.,24.0,0.,24.0
1979-07-23 10:04:07.460 ,2,1,0.,24.0,0.,24.0,0.,24.0,0.,24.0
1979-07-23 10:04:31.460 ,6,1,0.,24.0,0.,24.0,0.,24.0,0.,24.0
1979-07-23 10:04:55.460 ,5,1,0.,24.0,0.,24.0,0.,24.0,0.,24.0
1979-07-23 10:05:19.460 ,1,1,0.,24.0,0.,24.0,0.,24.0,0.,24.0
1979-07-23 10:05:43.460 ,0,0,0.,24.0,0.,24.0,0.,24.0,0.,24.0
1979-07-23 10:06:07.460 ,0,0,0.,24.0,0.,24.0,0.,24.0,0.,24.0
1979-07-23 10:06:31.460 ,5,1,0.,24.0,0.,24.0,0.,24.0,0.,24.0
1979-07-23 10:06:55.460 ,5,0,0.,24.0,0.,24.0,0.,24.0,0.,24.0
1979-07-23 10:07:19.460 ,4,1,0.,24.0,0.,24.0,0.,24.0,0.,24.0
1979-07-23 10:07:43.460 ,4,0,0.,24.0,0.,24.0,0.,24.0,0.,24.0
1979-07-23 10:08:07.460 ,3,1,0.,24.0,0.,24.0,0.,24.0,0.,24.0
1979-07-23 10:08:31.460 ,3,0,0.,24.0,0.,24.0,0.,24.0,0.,24.0
1979-07-23 10:08:55.460 ,2,1,0.,24.0,0.,24.0,0.,24.0,0.,24.0
1979-07-23 10:09:19.460 ,2,0,0.,24.0,0.,24.0,0.,24.0,0.,24.0
1979-07-23 10:09:43.460 ,1,1,0.,24.0,0.,24.0,0.,24.0,0.,24.0
1979-07-23 10:10:07.460 ,1,0,0.,24.0,0.,24.0,0.,24.0,0.,24.0
1979-07-23 10:10:31.460 ,0,1,0.,24.0,0.,24.0,0.,24.0,0.,24.0
1979-07-23 10:10:55.460 ,0,0,0.,24.0,0.,24.0,0.,24.0,0.,24.0
1979-07-23 10:11:19.460 ,0,1,0.,24.0,0.,24.0,0.,24.0,0.,24.0
1979-07-23 10:11:43.460 ,0,0,0.,24.0,0.,24.0,0.,24.0,0.,24.0
1979-07-23 10:12:07.460 ,1,1,0.,24.0,0.,24.0,0.,24.0,0.,24.0
1979-07-23 10:12:31.460 ,1,0,0.,24.0,0.,24.0,0.,24.0,0.,24.0
1979-07-23 10:12:55.460 ,2,1,0.,24.0,0.,24.0,0.,24.0,0.,24.0
1979-07-23 10:13:19.460 ,2,0,0.,24.0,0.,24.0,0.,24.0,0.,24.0
1979-07-23 10:13:43.460 ,3,1,0.,24.0,0.,24.0,0.,24.0,0.,24.0
1979-07-23 10:14:07.460 ,3,0,0.,24.0,0.,24.0,0.,24.0,0.,24.0
1979-07-23 10:14:31.460 ,4,1,0.,24.0,0.,24.0,0.,24.0,0.,24.0
1979-07-23 10:14:55.460 ,4,0,0.,24.0,0.,24.0,0.,24.0,0.,24.0
1979-07-23 10:15:19.460 ,5,1,0.,24.0,0.,24.0,0.,24.0,0.,24.0
1979-07-23 10:15:43.460 ,5,0,0.,24.0,0.,24.0,0.,24.0,0.,24.0
1979-07-23 10:16:07.460 ,6,1,0.,24.0,0.,24.0,0.,24.0,0.,24.0
1979-07-23 10:16:31.460 ,6,0,0.,24.0,0.,24.0,0.,24.0,0.,24.0
1979-07-23 10:16:55.460 ,7,1,0.,24.0,0.,24.0,0.,24.0,0.,24.0
1979-07-23 10:17:19.460 ,7,0,0.,24.0,0.,24.0,0.,24.0,0.,24.0
1979-07-23 10:17:43.460 ,7,1,0.,24.0,0.,24.0,0.,24.0,0.,24.0
1979-07-23 10:18:07.460 ,7,0,0.,24.0,0.,24.0,0.,24.0,0.,24.0
1979-07-23 10:18:31.460 ,6,1,0.,24.0,0.,24.0,0.,24.0,0.,24.0
1979-07-23 10:18:55.460 ,6,0,0.,24.0,0.,24.0,0.,24.0,0.,24.0
1979-07-23 10:19:19.460 ,5,1,0.,24.0,0.,24.0,0.,24.0,0.,24.0
1979-07-23 10:19:43.460 ,5,0,0.,24.0,0.,24.0,0.,24.0,0.,24.0
1979-07-23 10:20:07.460 ,4,1,0.,24.0,0.,24.0,0.,24.0,0.,24.0
1979-07-23 10:20:31.460 ,4,0,1.,24.0,0.,24.0,0.,24.0,0.,24.0
1979-07-23 10:20:55.460 ,3,1,0.,24.0,0.,24.0,0.,24.0,0.,24.0
1979-07-23 10:21:19.460 ,3,0,0.,24.0,0.,24.0,0.,24.0,0.,24.0
1979-07-23 10:21:43.460 ,2,1,0.,24.0,0.,24.0,0.,24.0,0.,24.0
1979-07-23 10:22:07.460 ,2,0,0.,24.0,0.,24.0,0.,24.0,0.,24.0
1979-07-23 10:22:31.460 ,1,1,0.,24.0,0.,24.0,0.,24.0,0.,24.0
1979-07-23 10:22:55.460 ,1,0,0.,24.0,0.,24.0,0.,24.0,0.,24.0
1979-07-23 10:23:19.460 ,0,1,0.,24.0,0.,24.0,0.,24.0,0.,24.0
1979-07-23 10:23:43.460 ,0,0,0.,24.0,0.,24.0,0.,24.0,0.,24.0
1979-07-23 10:24:07.460 ,0,1,0.,24.0,0.,24.0,0.,24.0,0.,24.0
1979-07-23 10:24:31.460 ,0,0,0.,24.0,0.,24.0,0.,24.0,0.,24.0
1979-07-23 10:24:55.460 ,1,1,0.,24.0,0.,24.0,0.,24.0,0.,24.0
1979-07-23 10:25:19.460 ,1,0,0.,24.0,0.,24.0,0.,24.0,0.,24.0
1979-07-23 10:25:43.460 ,2,1,0.,24.0,0.,24.0,0.,24.0,0.,24.0
1979-07-23 10:26:07.460 ,2,0,1.,24.0,0.,24.0,0.,24.0,0.,24.0
1979-07-23 10:26:31.460 ,3,1,0.,24.0,0.,24.0,0.,24.0,0.,24.0
1979-07-23 10:26:55.460 ,3,0,0.,24.0,0.,24.0,0.,24.0,0.,24.0
1979-07-23 10:27:19.460 ,4,1,0.,24.0,0.,24.0,0.,24.0,0.,24.0
1979-07-23 10:27:43.460 ,4,0,0.,24.0,0.,24.0,0.,24.0,0.,24.0
1979-07-23 10:28:07.460 ,5,1,0.,24.0,0.,24.0,0.,24.0,0.,24.0
1979-07-23 10:28:31.460 ,5,0,0.,24.0,0.,24.0,0.,24.0,0.,24.0
1979-07-23 10:28:55.460 ,6,1,0.,24.0,0.,24.0,0.,24.0,0.,24.0
1979-07-23 10:29:19.460 ,6,0,0.,24.0,0.,24.0,0.,24.0,0.,24.0
1979-07-23 10:29:43.460 ,7,1,0.,24.0,0.,24.0,0.,24.0,0.,24.0
1979-07-23 10:30:07.460 ,7,0,0.,24.0,0.,24.0,0.,24.0,0.,24.0
1979-07-23 10:30:31.460 ,7,1,0.,24.0,0.,24.0,0.,24.0,0.,24.0
1979-07-23 10:30:55.460 ,7,0,0.,24.0,0.,24.0,0.,24.0,0.,24.0
1979-07-23 10:31:19.460 ,6,1,0.,24.0,0.,24.0,0.,24.0,0.,24.0
1979-07-23 10:31:43.460 ,6,0,0.,24.0,0.,24.0,0.,24.0,0.,24.0
1979-07-23 10:32:07.460 ,5,1,0.,24.0,0.,24.0,0.,24.0,0.,24.0
1979-07-23 10:32:31.460 ,5,0,0.,24.0,0.,24.0,0.,24.0,0.,24.0
1979-07-23 10:32:55.460 ,4,1,0.,24.0,0.,24.0,0.,24.0,0.,24.0
1979-07-23 10:33:19.460 ,4,0,0.,24.0,0.,24.0,0.,24.0,0.,24.0
1979-07-23 10:33:43.460 ,3,1,0.,24.0,0.,24.0,0.,24.0,0.,24.0
1979-07-23 10:34:07.460 ,3,0,0.,24.0,0.,24.0,0.,24.0,0.,24.0
1979-07-23 10:34:31.460 ,2,1,0.,24.0,0.,24.0,0.,24.0,0.,24.0
1979-07-23 10:34:55.460 ,2,0,0.,24.0,0.,24.0,0.,24.0,0.,24.0
1979-07-23 10:35:19.460 ,1,1,0.,24.0,0.,24.0,0.,24.0,0.,24.0
1979-07-23 10:35:43.460 ,1,0,0.,24.0,0.,24.0,0.,24.0,0.,24.0
1979-07-23 10:36:07.460 ,0,1,0.,24.0,0.,24.0,0.,24.0,0.,24.0
1979-07-23 10:36:31.460 ,0,0,0.,24.0,0.,24.0,0.,24.0,0.,24.0
1979-07-23 10:36:55.460 ,0,1,0.,24.0,0.,24.0,0.,24.0,0.,24.0
1979-07-23 10:37:19.460 ,0,0,0.,24.0,0.,24.0,0.,24.0,0.,24.0
1979-07-23 10:37:43.460 ,1,1,0.,24.0,0.,24.0,0.,24.0,0.,24.0
1979-07-23 10:38:07.460 ,1,0,0.,24.0,0.,24.0,0.,24.0,0.,24.0
1979-07-23 10:38:31.460 ,2,1,0.,24.0,0.,24.0,0.,24.0,0.,24.0
1979-07-23 10:38:55.460 ,2,0,0.,24.0,0.,24.0,0.,24.0,0.,24.0
1979-07-23 10:39:19.460 ,3,1,0.,24.0,0.,24.0,0.,24.0,0.,24.0
1979-07-23 10:39:43.460 ,3,0,0.,24.0,0.,24.0,0.,24.0,0.,24.0
1979-07-23 10:40:07.460 ,4,1,0.,24.0,0.,24.0,0.,24.0,0.,24.0
1979-07-23 10:40:31.460 ,4,0,0.,24.0,0.,24.0,0.,24.0,0.,24.0
1979-07-23 10:40:55.460 ,5,1,0.,24.0,0.,24.0,0.,24.0,0.,24.0
1979-07-23 10:41:19.460 ,5,0,0.,24.0,0.,24.0,0.,24.0,0.,24.0
1979-07-23 10:41:43.460 ,6,1,0.,24.0,0.,24.0,0.,24.0,0.,24.0
1979-07-23 10:42:07.460 ,6,0,0.,24.0,0.,24.0,0.,24.0,0.,24.0
1979-07-23 10:42:31.460 ,7,0,0.,24.0,0.,24.0,0.,24.0,0.,24.0
1979-07-23 10:42:55.460 ,7,0,0.,24.0,0.,24.0,0.,24.0,0.,24.0
1979-07-23 10:43:19.460 ,5,1,0.,24.0,0.,24.0,0.,24.0,0.,24.0
1979-07-23 10:43:43.460 ,1,1,0.,24.0,0.,24.0,0.,24.0,0.,24.0
1979-07-23 10:44:07.460 ,2,1,0.,24.0,0.,24.0,0.,24.0,0.,24.0
1979-07-23 10:44:31.460 ,6,1,0.,24.0,0.,24.0,0.,24.0,0.,24.0
1979-07-23 10:44:55.460 ,5,1,0.,24.0,0.,24.0,0.,24.0,0.,24.0
1979-07-23 10:45:19.460 ,1,1,0.,24.0,0.,24.0,0.,24.0,0.,24.0
1979-07-23 10:45:43.460 ,2,1,0.,24.0,0.,24.0,0.,24.0,0.,24.0
1979-07-23 10:46:07.460 ,6,1,0.,24.0,0.,24.0,0.,24.0,0.,24.0
1979-07-23 10:46:31.460 ,5,1,0.,24.0,0.,24.0,0.,24.0,0.,24.0
1979-07-23 10:46:55.460 ,1,1,0.,24.0,0.,24.0,0.,24.0,0.,24.0
1979-07-23 10:47:19.460 ,2,1,0.,24.0,0.,24.0,0.,24.0,0.,24.0
1979-07-23 10:47:43.460 ,6,1,0.,24.0,0.,24.0,0.,24.0,0.,24.0
1979-07-23 10:48:07.460 ,5,1,0.,24.0,0.,24.0,0.,24.0,0.,24.0
1979-07-23 10:48:31.460 ,1,1,0.,24.0,0.,24.0,0.,24.0,0.,24.0
1979-07-23 10:48:55.460 ,2,1,0.,24.0,0.,24.0,0.,24.0,0.,24.0
1979-07-23 10:49:19.460 ,6,1,0.,24.0,0.,24.0,0.,24.0,0.,24.0
1979-07-23 10:49:43.460 ,5,1,0.,24.0,0.,24.0,0.,24.0,0.,24.0
1979-07-23 10:50:07.460 ,1,1,0.,24.0,0.,24.0,0.,24.0,0.,24.0
1979-07-23 10:50:31.460 ,2,1,0.,24.0,0.,24.0,0.,24.0,0.,24.0
1979-07-23 10:50:55.460 ,6,1,0.,24.0,0.,24.0,0.,24.0,0.,24.0
1979-07-23 10:51:19.460 ,5,1,0.,24.0,0.,24.0,0.,24.0,0.,24.0
1979-07-23 10:51:43.460 ,1,1,0.,24.0,0.,24.0,0.,24.0,0.,24.0
1979-07-23 10:52:07.460 ,2,1,0.,24.0,0.,24.0,0.,24.0,0.,24.0
1979-07-23 10:52:31.460 ,6,1,0.,24.0,0.,24.0,0.,24.0,0.,24.0
1979-07-23 10:52:55.460 ,5,1,0.,24.0,0.,24.0,0.,24.0,0.,24.0
1979-07-23 10:53:19.460 ,1,1,0.,24.0,0.,24.0,0.,24.0,0.,24.0
1979-07-23 10:53:43.460 ,0,0,0.,24.0,0.,24.0,0.,24.0,0.,24.0
1979-07-23 10:54:07.460 ,0,0,0.,24.0,0.,24.0,0.,24.0,0.,24.0
1979-07-23 10:54:31.460 ,5,1,0.,24.0,0.,24.0,0.,24.0,0.,24.0
1979-07-23 10:54:55.460 ,5,0,0.,24.0,0.,24.0,0.,24.0,0.,24.0
1979-07-23 10:55:19.460 ,4,1,0.,24.0,0.,24.0,0.,24.0,0.,24.0
1979-07-23 10:55:43.460 ,4,0,0.,24.0,0.,24.0,0.,24.0,0.,24.0
1979-07-23 10:56:07.460 ,3,1,0.,24.0,0.,24.0,0.,24.0,0.,24.0
1979-07-23 10:56:31.460 ,3,0,0.,24.0,0.,24.0,0.,24.0,0.,24.0
1979-07-23 10:56:55.460 ,2,1,0.,24.0,0.,24.0,0.,24.0,0.,24.0
1979-07-23 10:57:19.460 ,2,0,0.,24.0,0.,24.0,0.,24.0,0.,24.0
1979-07-23 10:57:43.460 ,1,1,0.,24.0,0.,24.0,0.,24.0,0.,24.0
1979-07-23 10:58:07.460 ,1,0,0.,24.0,0.,24.0,0.,24.0,0.,24.0
1979-07-23 10:58:31.460 ,0,1,0.,24.0,0.,24.0,0.,24.0,0.,24.0
1979-07-23 10:58:55.460 ,0,0,0.,24.0,0.,24.0,0.,24.0,0.,24.0
1979-07-23 10:59:19.460 ,0,1,0.,24.0,0.,24.0,0.,24.0,0.,24.0
1979-07-23 10:59:43.460 ,0,0,0.,24.0,0.,24.0,0.,24.0,0.,24.0
1979-07-23 11:00:07.460 ,1,1,0.,24.0,0.,24.0,0.,24.0,0.,24.0
1979-07-23 11:00:31.460 ,1,0,0.,24.0,0.,24.0,0.,24.0,0.,24.0
1979-07-23 11:00:55.460 ,2,1,0.,24.0,0.,24.0,0.,24.0,0.,24.0
1979-07-23 11:01:19.460 ,2,0,0.,24.0,0.,24.0,0.,24.0,0.,24.0
1979-07-23 11:01:43.460 ,3,1,0.,24.0,0.,24.0,0.,24.0,0.,24.0
1979-07-23 11:02:07.460 ,3,0,0.,24.0,0.,24.0,0.,24.0,0.,24.0
1979-07-23 11:02:31.460 ,4,1,0.,24.0,0.,24.0,0.,24.0,0.,24.0
1979-07-23 11:02:55.460 ,4,0,0.,24.0,0.,24.0,0.,24.0,0.,24.0
1979-07-23 11:03:19.460 ,5,1,0.,24.0,0.,24.0,0.,24.0,0.,24.0
1979-07-23 11:03:43.460 ,5,0,0.,24.0,0.,24.0,0.,24.0,0.,24.0
1979-07-23 11:04:07.460 ,6,1,0.,24.0,0.,24.0,0.,24.0,0.,24.0
1979-07-23 11:04:31.460 ,6,0,0.,24.0,0.,24.0,0.,24.0,0.,24.0
1979-07-23 11:04:55.460 ,7,1,0.,24.0,0.,24.0,0.,24.0,0.,24.0
1979-07-23 11:05:19.460 ,7,0,0.,24.0,0.,24.0,0.,24.0,0.,24.0
1979-07-23 11:05:43.460 ,7,1,0.,24.0,0.,24.0,0.,24.0,0.,24.0
1979-07-23 11:06:07.460 ,7,0,0.,24.0,0.,24.0,0.,24.0,0.,24.0
1979-07-23 11:06:31.460 ,6,1,0.,24.0,0.,24.0,0.,24.0,0.,24.0
1979-07-23 11:06:55.460 ,0,0,0.,24.0,0.,24.0,0.,24.0,0.,24.0
1979-07-23 11:07:19.460 ,5,1,0.,24.0,0.,24.0,0.,24.0,0.,24.0
1979-07-23 11:07:43.460 ,5,0,0.,24.0,0.,24.0,0.,24.0,0.,24.0
1979-07-23 11:08:07.460 ,4,1,0.,24.0,0.,24.0,0.,24.0,0.,24.0
1979-07-23 11:08:31.460 ,4,0,0.,24.0,0.,24.0,0.,24.0,0.,24.0
1979-07-23 11:08:55.460 ,3,1,0.,24.0,0.,24.0,0.,24.0,0.,24.0
1979-07-23 11:09:19.460 ,3,0,0.,24.0,0.,24.0,0.,24.0,0.,24.0
1979-07-23 11:09:43.460 ,2,1,0.,24.0,0.,24.0,0.,24.0,0.,24.0
1979-07-23 11:10:07.460 ,2,0,0.,24.0,0.,24.0,0.,24.0,0.,24.0
1979-07-23 11:10:31.460 ,1,1,0.,24.0,0.,24.0,0.,24.0,0.,24.0
1979-07-23 11:10:55.460 ,1,0,0.,24.0,0.,24.0,0.,24.0,0.,24.0
1979-07-23 11:11:19.460 ,0,1,0.,24.0,0.,24.0,0.,24.0,0.,24.0
1979-07-23 11:11:43.460 ,0,0,0.,24.0,0.,24.0,0.,24.0,0.,24.0
1979-07-23 11:12:07.460 ,0,1,0.,24.0,0.,24.0,0.,24.0,0.,24.0
1979-07-23 11:12:31.460 ,0,0,0.,24.0,0.,24.0,0.,24.0,0.,24.0
1979-07-23 11:12:55.460 ,1,1,0.,24.0,0.,24.0,0.,24.0,0.,24.0
1979-07-23 11:13:19.460 ,1,0,0.,24.0,0.,24.0,0.,24.0,0.,24.0
1979-07-23 11:13:43.460 ,2,1,0.,24.0,0.,24.0,0.,24.0,0.,24.0
1979-07-23 11:14:07.460 ,2,0,0.,24.0,0.,24.0,0.,24.0,0.,24.0
1979-07-23 11:14:31.460 ,3,1,0.,24.0,0.,24.0,0.,24.0,0.,24.0
1979-07-23 11:14:55.460 ,3,0,0.,24.0,0.,24.0,0.,24.0,0.,24.0
1979-07-23 11:15:19.460 ,4,1,1.,24.0,0.,24.0,0.,24.0,0.,24.0
1979-07-23 11:15:43.460 ,4,0,0.,24.0,0.,24.0,0.,24.0,0.,24.0
1979-07-23 11:16:07.460 ,5,1,0.,24.0,0.,24.0,0.,24.0,0.,24.0
1979-07-23 11:16:31.460 ,5,0,0.,24.0,0.,24.0,0.,24.0,0.,24.0
1979-07-23 11:16:55.460 ,6,1,0.,24.0,0.,24.0,0.,24.0,0.,24.0
1979-07-23 11:17:19.460 ,6,0,0.,24.0,0.,24.0,0.,24.0,0.,24.0
1979-07-23 11:17:43.460 ,7,1,0.,24.0,0.,24.0,0.,24.0,0.,24.0
1979-07-23 11:18:07.460 ,7,0,0.,24.0,0.,24.0,0.,24.0,0.,24.0
1979-07-23 11:18:31.460 ,7,1,0.,24.0,0.,24.0,0.,24.0,0.,24.0
1979-07-23 11:18:55.460 ,7,0,0.,24.0,0.,24.0,0.,24.0,0.,24.0
1979-07-23 11:19:19.460 ,6,1,0.,24.0,0.,24.0,0.,24.0,0.,24.0
1979-07-23 11:19:43.460 ,6,0,0.,24.0,0.,24.0,0.,24.0,0.,24.0
1979-07-23 11:20:07.460 ,5,1,0.,24.0,0.,24.0,0.,24.0,0.,24.0
1979-07-23 11:20:31.460 ,5,0,0.,24.0,0.,24.0,0.,24.0,0.,24.0
1979-07-23 11:20:55.460 ,4,1,0.,24.0,0.,24.0,0.,24.0,0.,24.0
1979-07-23 11:21:19.460 ,4,0,0.,24.0,0.,24.0,0.,24.0,0.,24.0
1979-07-23 11:21:43.460 ,3,1,0.,24.0,0.,24.0,0.,24.0,0.,24.0
1979-07-23 11:22:07.460 ,3,0,0.,24.0,0.,24.0,0.,24.0,0.,24.0
1979-07-23 11:22:31.460 ,2,1,0.,24.0,0.,24.0,0.,24.0,0.,24.0
1979-07-23 11:22:55.460 ,2,0,0.,24.0,0.,24.0,0.,24.0,0.,24.0
1979-07-23 11:23:19.460 ,1,1,0.,24.0,0.,24.0,0.,24.0,0.,24.0
1979-07-23 11:23:43.460 ,1,0,0.,24.0,0.,24.0,0.,24.0,0.,24.0
1979-07-23 11:24:55.460 ,0,0,0.,24.0,0.,24.0,0.,24.0,0.,24.0
1979-07-23 11:25:19.460 ,0,0,0.,24.0,0.,24.0,0.,24.0,0.,24.0
1979-07-23 11:25:43.460 ,1,1,0.,24.0,0.,24.0,0.,24.0,0.,24.0
1979-07-23 11:26:07.460 ,1,0,0.,24.0,0.,24.0,0.,24.0,0.,24.0
1979-07-23 11:26:31.460 ,2,1,0.,24.0,0.,24.0,0.,24.0,0.,24.0
1979-07-23 11:26:55.460 ,2,0,0.,24.0,0.,24.0,0.,24.0,0.,24.0
1979-07-23 11:27:19.460 ,3,1,0.,24.0,0.,24.0,0.,24.0,0.,24.0
1979-07-23 11:27:43.460 ,3,0,0.,24.0,0.,24.0,0.,24.0,0.,24.0
1979-07-23 11:28:07.460 ,4,1,0.,24.0,0.,24.0,0.,24.0,0.,24.0
1979-07-23 11:28:31.460 ,4,0,1.,24.0,0.,24.0,0.,24.0,0.,24.0
1979-07-23 11:28:55.460 ,5,1,0.,24.0,0.,24.0,0.,24.0,0.,24.0
1979-07-23 11:29:19.460 ,5,0,0.,24.0,0.,24.0,0.,24.0,0.,24.0
1979-07-23 11:29:43.460 ,6,1,0.,24.0,0.,24.0,0.,24.0,0.,24.0
1979-07-23 11:30:07.460 ,6,0,0.,24.0,0.,24.0,0.,24.0,0.,24.0
1979-07-23 11:30:31.460 ,7,0,0.,24.0,0.,24.0,0.,24.0,0.,24.0
1979-07-23 11:30:55.460 ,7,0,0.,24.0,0.,24.0,0.,24.0,0.,24.0
1979-07-23 11:31:19.460 ,5,1,0.,24.0,0.,24.0,0.,24.0,0.,24.0
1979-07-23 11:31:43.460 ,1,1,0.,24.0,0.,24.0,0.,24.0,0.,24.0
1979-07-23 11:32:07.460 ,2,1,1.,24.0,0.,24.0,0.,24.0,0.,24.0
1979-07-23 11:32:31.460 ,6,1,0.,24.0,0.,24.0,0.,24.0,0.,24.0
1979-07-23 11:32:55.460 ,5,1,0.,24.0,0.,24.0,0.,24.0,0.,24.0
1979-07-23 11:33:19.460 ,1,1,0.,24.0,0.,24.0,0.,24.0,0.,24.0
1979-07-23 11:33:43.460 ,2,1,0.,24.0,0.,24.0,0.,24.0,0.,24.0
1979-07-23 11:34:07.460 ,6,1,0.,24.0,0.,24.0,0.,24.0,0.,24.0
1979-07-23 11:34:31.450 ,5,1,0.,24.0,0.,24.0,0.,24.0,0.,24.0
1979-07-23 11:34:55.450 ,1,1,0.,24.0,0.,24.0,0.,24.0,0.,24.0
1979-07-23 11:35:19.450 ,2,1,0.,24.0,0.,24.0,0.,24.0,0.,24.0
1979-07-23 11:35:43.450 ,6,1,0.,24.0,0.,24.0,0.,24.0,0.,24.0
1979-07-23 11:36:07.450 ,5,1,0.,24.0,0.,24.0,0.,24.0,0.,24.0